TimeEDT,TemperatureF,Dew PointF,Humidity,Sea Level PressureIn,VisibilityMPH,Wind Direction,Wind SpeedMPH,Gust SpeedMPH,PrecipitationIn,Events,Conditions,WindDirDegrees,DateUTC
12:53 AM,68.0,66.9,96,30.12,6.0,Calm,Calm,-,N/A,,Clear,0,2013-09-16 04:53:00
1:53 AM,68.0,66.0,93,30.12,6.0,Calm,Calm,-,N/A,,Clear,0,2013-09-16 05:53:00
2:53 AM,66.9,66.0,97,30.12,5.0,Calm,Calm,-,N/A,,Clear,0,2013-09-16 06:53:00
3:53 AM,68.0,66.9,96,30.10,6.0,Calm,Calm,-,N/A,,Mostly Cloudy,0,2013-09-16 07:53:00
4:53 AM,66.9,66.0,97,30.10,5.0,Calm,Calm,-,N/A,,Scattered Clouds,0,2013-09-16 08:53:00
5:53 AM,66.0,64.9,96,30.12,4.0,Calm,Calm,-,N/A,,Partly Cloudy,0,2013-09-16 09:53:00
6:53 AM,66.0,64.9,96,30.12,4.0,Calm,Calm,-,N/A,,Partly Cloudy,0,2013-09-16 10:53:00
7:00 AM,66.2,64.4,94,30.13,4.0,Calm,Calm,-,N/A,,Partly Cloudy,0,2013-09-16 11:00:00
7:41 AM,66.2,64.4,94,30.14,2.5,Calm,Calm,-,N/A,,Partly Cloudy,0,2013-09-16 11:41:00
7:50 AM,66.2,64.4,94,30.14,3.0,Calm,Calm,-,N/A,,Scattered Clouds,0,2013-09-16 11:50:00
7:53 AM,66.0,64.9,96,30.13,3.0,Calm,Calm,-,N/A,,Mostly Cloudy,0,2013-09-16 11:53:00
8:53 AM,71.1,68.0,90,30.14,5.0,Calm,Calm,-,N/A,,Scattered Clouds,0,2013-09-16 12:53:00
9:53 AM,75.0,70.0,84,30.14,7.0,Calm,Calm,-,N/A,,Clear,0,2013-09-16 13:53:00
10:53 AM,79.0,71.1,77,30.15,8.0,Calm,Calm,-,N/A,,Clear,0,2013-09-16 14:53:00
11:53 AM,82.9,71.1,67,30.14,8.0,Variable,4.6,-,N/A,,Clear,0,2013-09-16 15:53:00
12:53 PM,84.9,68.0,57,30.13,9.0,NW,6.9,-,N/A,,Clear,310,2013-09-16 16:53:00
1:53 PM,86.0,66.0,51,30.12,10.0,Variable,3.5,-,N/A,,Clear,0,2013-09-16 17:53:00
2:53 PM,88.0,66.0,48,30.09,10.0,NW,10.4,-,N/A,,Clear,310,2013-09-16 18:53:00
3:53 PM,88.0,63.0,43,30.07,10.0,NNW,8.1,-,N/A,,Clear,340,2013-09-16 19:53:00
4:53 PM,88.0,61.0,40,30.06,10.0,NW,9.2,-,N/A,,Clear,310,2013-09-16 20:53:00
5:53 PM,88.0,59.0,37,30.05,10.0,North,6.9,-,N/A,,Clear,350,2013-09-16 21:53:00
6:53 PM,84.0,59.0,43,30.07,10.0,NNW,6.9,-,N/A,,Clear,330,2013-09-16 22:53:00
7:53 PM,72.0,66.0,81,30.08,10.0,Calm,Calm,-,N/A,,Clear,0,2013-09-16 23:53:00
8:53 PM,69.1,66.0,90,30.09,10.0,Calm,Calm,-,N/A,,Clear,0,2013-09-17 00:53:00
9:53 PM,66.9,64.9,93,30.11,8.0,Calm,Calm,-,N/A,,Clear,0,2013-09-17 01:53:00
10:53 PM,64.9,64.0,97,30.11,7.0,Calm,Calm,-,N/A,,Clear,0,2013-09-17 02:53:00
11:53 PM,64.0,63.0,96,30.11,7.0,Calm,Calm,-,N/A,,Clear,0,2013-09-17 03:53:00